Miscellaneous Local Product
Issued by NWS North Platte, NE

Home | Current Version | Previous Version | Text Only | Print | Product List | Glossary On
Versions: 1 2 3 4 5 6 7 8 9 10 11 12 13 14 15 16 17 18 19 20 21 22 23 24 25 26 27 28 29 30 31 32 33 34 35 36 37 38 39 40 41 42 43 44 45 46 47 48 49 50
340
AXUS43 KLBF 170810
MISLBF


WESTERN AND NORTH CENTRAL NEBRASKA HOURLY WEATHER ROUNDUP
NATIONAL WEATHER SERVICE NORTH PLATTE NE
200 AM CST TUE JAN 17 2017

NOTE: "FAIR" INDICATES FEW OR NO CLOUDS BELOW 12,000 FEET WITH NO
SIGNIFICANT WEATHER AND/OR OBSTRUCTIONS TO VISIBILITY.

NOTE: STATIONS NOT REPORTING VARIABLES SUCH AS SKY/WEATHER OR
PRESSURE ARE PROVIDED BY RAWS AND APRS NETWORKS AND ARE NOT UNDER
NATIONAL WEATHER SERVICE QUALITY CONTROL.

...OBSERVATIONS IN AND NEAR THE EASTERN PANHANDLE OF NEBRASKA...

CITY           SKY/WX    TMP DP  RH WIND       PRES   REMARKS
PINE RIDGE     CLOUDY     2  -1  88 E5        30.06F WCI  -8
CHADRON        CLEAR     14   8  77 W5        30.07F WCI   6
ALLIANCE       CLEAR     16  11  80 W6        30.04F WCI   7
SIDNEY         CLOUDY    22  13  68 W12       30.07S WCI  10
CRESCENT LAKE    N/A     21  14  75 NW7         N/A  WCI  12
$$

...OBSERVATIONS IN NORTHERN NEBRASKA AND FAR SOUTHERN SOUTH DAKOTA...

CITY           SKY/WX    TMP DP  RH WIND       PRES   REMARKS
WINNER         FAIR      16  12  84 W5        30.05S WCI   9
VALENTINE      CLEAR     14  10  84 W6        30.05F WCI   5
THEDFORD       CLOUDY    23  18  80 W3        30.04S
AINSWORTH      CLOUDY    19  16  90 W9        30.02F WCI   7
O`NEILL        CLOUDY    20  17  86 NW12      30.02F WCI   8
ORD            CLOUDY    21  16  81 NW7       30.04R WCI  12
BROKEN BOW     CLOUDY    25  18  74 NW16      30.03F WCI  12
VALENTINE NWR    N/A     20  14  77 NW8         N/A  WCI  10
BUTTE            N/A     17  13  86 W6          N/A  WCI   9
HALSEY           N/A     23  15  73 NW6         N/A  WCI  16
SARGENT          N/A     23  19  83 NW3         N/A
CHAMBERS         N/A     19  15  83 S3          N/A
EWING            N/A     18  15  87 NW3         N/A
$$

...OBSERVATIONS IN SOUTHWEST NEBRASKA AND FAR NORTHEAST COLORADO...

CITY           SKY/WX    TMP DP  RH WIND       PRES   REMARKS
WRAY           FAIR      23  19  86 W5        30.10S WCI  17
HOLYOKE        FAIR      23  16  74 W9        30.08S WCI  13
IMPERIAL       CLEAR     27  21  78 NW8       30.08S WCI  19
OGALLALA       CLOUDY    24  20  86 CALM      30.07S
NORTH PLATTE   CLOUDY    22  18  85 NW5       30.07R WCI  16
MCCOOK         CLEAR     28  23  81 W9        30.08R WCI  19
LEXINGTON      CLOUDY    26  22  82 W8        30.06R WCI  18
STAPLETON        N/A     23  18  81 CALM        N/A
GOTHENBURG       N/A     26  20  76 NW7         N/A  WCI  18
CALLAWAY         N/A     23  19  85 CALM        N/A
$$

...OBSERVATIONS IN CENTRAL LINCOLN COUNTY AREA...

CITY           SKY/WX    TMP DP  RH WIND       PRES   REMARKS
N.P. AIRPORT   CLOUDY    22  18  85 NW5       30.07R WCI  16
N.P. DOWNTOWN    N/A     26  22  84 CALM        N/A
N.P. SOUTHEAST   N/A     25  20  81 CALM        N/A
N.P. HILLCREST   N/A     25  21  85 NW3         N/A
$$

...SOME OBSERVATIONS FROM AROUND THE REGION...

CITY           SKY/WX    TMP DP  RH WIND       PRES   REMARKS
LARAMIE        FOG       -1  -3  91 W7        30.06F VSB 1/4 WCI -14
CHEYENNE       CLOUDY    15   8  73 W7        30.05F WCI   5
DENVER         CLOUDY    22  16  78 S9        30.07F WCI  12
AKRON          CLOUDY    19  13  77 W9        30.08S WCI   8
SCOTTSBLUFF    CLEAR     19  13  77 NW8       30.07F WCI   9
RAPID CITY     CLOUDY    17   9  70 CALM      30.03F
BISMARCK       CLOUDY     7   3  84 W3        30.03F
PIERRE         CLOUDY    15  11  83 W7        30.05F WCI   5
SIOUX FALLS    FOG       22  22 100 W8        29.99S VSB 1/2 WCI  12
OMAHA          CLOUDY    33  28  81 NW16      29.99R HAZE    WCI  23
GRAND ISLAND   CLEAR     25  23  92 NW7         N/A  WCI  17
KANSAS CITY    FOG       34  33  96 W9        29.97R VSB 1/2 WCI  27
WICHITA        DRIZZLE   35  34  96 NW12      30.05S WCI  27
OKLAHOMA CITY  PTCLDY    37  33  85 NW12      30.10S WCI  29
DALLAS         CLOUDY    48  40  73 N10       30.13R
AMARILLO       CLOUDY    35  32  88 NW6       30.14S WCI  30
DODGE CITY     CLOUDY    33  31  92 NW9       30.10R WCI  25
HAYS           CLOUDY    33  30  88 NW8       30.08R WCI  26
GOODLAND       CLOUDY    24  21  88 W9        30.09S WCI  14
$$




USA.gov is the U.S. government's official web portal to all federal, state and local government web resources and services.